User: anonymous   Login
Location: Unspecified
(0.0000°N, 0.0000°E)
Time: 01:18:06
(UTC+02:00)
Language:

Cosmos 2219 - Orbit

View from above orbital plane
View from above orbital plane
View from above satellite
View from above satellite

Ground track
Ground track

The orbit data is extracted from the following two-line orbital elements,

1 22219U 92076A   17141.87616542 -.00000331 +00000-0 -15059-3 0  9995
2 22219 071.0607 252.6772 0015832 065.2926 294.9842 14.13610396264171
Epoch (UTC): 21 May 2017 21:01:40
Eccentricity: 0.0015832
inclination: 71.0607°
perigee height: 835 km
apogee height: 858 km
right ascension of ascending node: 252.6772°
argument of perigee: 65.2926°
revolutions per day: 14.13610396
mean anomaly at epoch: 294.9842°
orbit number at epoch: 26417

The dashed part of the orbit path shows where the satellite is in the earth's shadow,  

DLR